• In Hungary
  • List of Countries
  • For 7 days
  • Water Temperature
  • Satellite Maps
  • Weather Map
  • News
  • Weather Widgets
  • user-avatar
    Login

    Hourly Weather Madurai

    Today, 21 July, Saturday

    Time Temperature Precipitation Wind Pressure Humidity
    00:00 +32°C° 0 mm 4 mps 744 mmHg 54%
    01:00 +30°C° 0 mm 4 mps 743 mmHg 55%
    02:00 +30°C° 0 mm 3 mps 743 mmHg 56%
    03:00 +30°C° 0 mm 3 mps 743 mmHg 57%
    04:00 +30°C° 0 mm 3 mps 743 mmHg 58%
    05:00 +29°C° 0 mm 2 mps 743 mmHg 58%
    06:00 +30°C° 0 mm 3 mps 743 mmHg 55%
    07:00 +31°C° 0 mm 3 mps 743 mmHg 52%
    08:00 +33°C° 0 mm 4 mps 744 mmHg 50%
    09:00 +34°C° 0 mm 4 mps 744 mmHg 45%
    10:00 +36°C° 0 mm 4 mps 744 mmHg 41%
    11:00 +38°C° 0 mm 3 mps 744 mmHg 33%
    12:00 +39°C° 0 mm 3 mps 743 mmHg 32%
    13:00 +40°C° 0 mm 4 mps 743 mmHg 31%
    14:00 +41°C° 0 mm 4 mps 743 mmHg 31%
    15:00 +40°C° 0.1 mm 4 mps 743 mmHg 32%
    16:00 +39°C° 0.1 mm 5 mps 743 mmHg 34%
    17:00 +39°C° 0.1 mm 5 mps 743 mmHg 36%
    18:00 +36°C° 0.2 mm 5 mps 743 mmHg 40%
    19:00 +35°C° 0.2 mm 5 mps 743 mmHg 44%
    20:00 +34°C° 0.2 mm 5 mps 744 mmHg 47%
    21:00 +34°C° 0.1 mm 4 mps 744 mmHg 48%
    22:00 +33°C° 0.1 mm 4 mps 744 mmHg 49%
    23:00 +33°C° 0.1 mm 4 mps 745 mmHg 50%

    Tomorrow, 22 July, Sunday

    Time Temperature Precipitation Wind Pressure Humidity
    00:00 +32°C° 0 mm 4 mps 744 mmHg 51%
    01:00 +31°C° 0 mm 3 mps 744 mmHg 52%
    02:00 +31°C° 0 mm 3 mps 743 mmHg 53%
    03:00 +30°C° 0 mm 3 mps 743 mmHg 54%
    04:00 +30°C° 0 mm 3 mps 743 mmHg 55%
    05:00 +30°C° 0 mm 2 mps 743 mmHg 56%
    06:00 +31°C° 0 mm 2 mps 744 mmHg 53%
    07:00 +31°C° 0 mm 3 mps 744 mmHg 51%
    08:00 +33°C° 0 mm 3 mps 745 mmHg 48%
    09:00 +34°C° 0 mm 3 mps 745 mmHg 44%
    10:00 +36°C° 0 mm 3 mps 744 mmHg 40%
    11:00 +37°C° 0 mm 3 mps 744 mmHg 36%
    12:00 +38°C° 0 mm 3 mps 744 mmHg 35%
    13:00 +38°C° 0 mm 3 mps 743 mmHg 33%
    14:00 +40°C° 0 mm 4 mps 742 mmHg 32%
    15:00 +38°C° 0.1 mm 4 mps 742 mmHg 34%
    16:00 +38°C° 0.1 mm 4 mps 742 mmHg 35%
    17:00 +37°C° 0.1 mm 4 mps 742 mmHg 37%
    18:00 +36°C° 0 mm 4 mps 743 mmHg 40%
    19:00 +35°C° 0 mm 5 mps 743 mmHg 43%
    20:00 +34°C° 0 mm 5 mps 743 mmHg 46%
    21:00 +34°C° 0 mm 4 mps 744 mmHg 48%
    22:00 +33°C° 0 mm 4 mps 744 mmHg 49%
    23:00 +33°C° 0 mm 3 mps 744 mmHg 50%

    Day after tomorrow, 23 July, Monday

    Time Temperature Precipitation Wind Pressure Humidity
    00:00 +31°C° 0 mm 3 mps 744 mmHg 51%
    01:00 +31°C° 0 mm 3 mps 743 mmHg 52%
    02:00 +31°C° 0 mm 3 mps 743 mmHg 53%
    03:00 +30°C° 0 mm 3 mps 743 mmHg 54%
    04:00 +30°C° 0 mm 2 mps 743 mmHg 55%
    05:00 +30°C° 0 mm 2 mps 743 mmHg 56%
    06:00 +31°C° 0 mm 3 mps 743 mmHg 53%
    07:00 +31°C° 0 mm 3 mps 743 mmHg 50%
    08:00 +33°C° 0 mm 3 mps 744 mmHg 47%
    09:00 +35°C° 0 mm 3 mps 744 mmHg 43%
    10:00 +36°C° 0 mm 3 mps 744 mmHg 39%
    11:00 +37°C° 0 mm 3 mps 744 mmHg 35%
    12:00 +38°C° 0 mm 3 mps 743 mmHg 34%
    13:00 +38°C° 0 mm 3 mps 743 mmHg 34%
    14:00 +38°C° 0 mm 3 mps 742 mmHg 33%
    15:00 +38°C° 0 mm 4 mps 742 mmHg 34%
    16:00 +37°C° 0 mm 4 mps 742 mmHg 35%
    17:00 +37°C° 0 mm 4 mps 742 mmHg 37%
    18:00 +36°C° 0 mm 4 mps 742 mmHg 40%
    19:00 +35°C° 0 mm 4 mps 743 mmHg 42%
    20:00 +34°C° 0 mm 4 mps 744 mmHg 45%
    21:00 +34°C° 0 mm 4 mps 744 mmHg 47%
    22:00 +33°C° 0 mm 4 mps 744 mmHg 48%
    23:00 +33°C° 0 mm 4 mps 744 mmHg 50%

    24 July, Tuesday

    Time Temperature Precipitation Wind Pressure Humidity
    00:00 +31°C° 0 mm 3 mps 744 mmHg 51%
    01:00 +31°C° 0 mm 3 mps 743 mmHg 51%
    02:00 +31°C° 0 mm 3 mps 743 mmHg 52%
    03:00 +30°C° 0 mm 2 mps 743 mmHg 53%
    04:00 +30°C° 0 mm 2 mps 743 mmHg 54%
    05:00 +30°C° 0 mm 2 mps 743 mmHg 55%
    06:00 +30°C° 0 mm 2 mps 744 mmHg 52%
    07:00 +31°C° 0 mm 2 mps 744 mmHg 49%
    08:00 +33°C° 0 mm 3 mps 745 mmHg 47%
    09:00 +35°C° 0 mm 3 mps 745 mmHg 43%
    10:00 +36°C° 0 mm 2 mps 745 mmHg 39%
    11:00 +37°C° 0 mm 2 mps 745 mmHg 35%
    12:00 +38°C° 0 mm 2 mps 744 mmHg 34%
    13:00 +38°C° 0 mm 2 mps 743 mmHg 33%
    14:00 +39°C° 0 mm 2 mps 743 mmHg 32%
    15:00 +38°C° 0 mm 3 mps 743 mmHg 33%
    16:00 +38°C° 0 mm 4 mps 743 mmHg 35%
    17:00 +37°C° 0 mm 4 mps 743 mmHg 36%
    18:00 +36°C° 0.1 mm 4 mps 743 mmHg 39%
    19:00 +35°C° 0.1 mm 4 mps 744 mmHg 42%
    20:00 +34°C° 0.1 mm 4 mps 744 mmHg 45%
    21:00 +34°C° 0 mm 4 mps 744 mmHg 46%
    22:00 +33°C° 0 mm 4 mps 744 mmHg 47%
    23:00 +33°C° 0 mm 4 mps 745 mmHg 48%

    25 July, Wednesday

    Time Temperature Precipitation Wind Pressure Humidity
    00:00 +31°C° 0 mm 3 mps 744 mmHg 49%
    01:00 +31°C° 0 mm 3 mps 744 mmHg 50%
    02:00 +31°C° 0 mm 3 mps 743 mmHg 51%
    03:00 +30°C° 0 mm 3 mps 743 mmHg 52%
    04:00 +30°C° 0 mm 2 mps 743 mmHg 54%
    05:00 +30°C° 0 mm 2 mps 744 mmHg 55%
    06:00 +30°C° 0 mm 3 mps 744 mmHg 52%
    07:00 +31°C° 0 mm 3 mps 744 mmHg 49%
    08:00 +33°C° 0 mm 3 mps 745 mmHg 46%
    09:00 +35°C° 0 mm 2 mps 745 mmHg 42%
    10:00 +36°C° 0 mm 2 mps 745 mmHg 38%
    11:00 +38°C° 0 mm 2 mps 744 mmHg 34%
    12:00 +38°C° 0 mm 2 mps 744 mmHg 33%
    13:00 +39°C° 0 mm 2 mps 743 mmHg 32%
    14:00 +39°C° 0 mm 2 mps 742 mmHg 31%
    15:00 +39°C° 0 mm 3 mps 742 mmHg 33%
    16:00 +38°C° 0 mm 3 mps 742 mmHg 35%
    17:00 +37°C° 0 mm 4 mps 742 mmHg 37%
    18:00 +36°C° 0 mm 4 mps 743 mmHg 40%
    19:00 +36°C° 0 mm 4 mps 743 mmHg 43%
    20:00 +35°C° 0 mm 4 mps 744 mmHg 46%
    21:00 +34°C° 0 mm 3 mps 744 mmHg 47%
    22:00 +34°C° 0 mm 3 mps 744 mmHg 48%
    23:00 +33°C° 0 mm 3 mps 744 mmHg 50%

    26 July, Thursday

    Time Temperature Precipitation Wind Pressure Humidity
    00:00 +33°C° 0.1 mm 3 mps 744 mmHg 51%
    01:00 +31°C° 0.1 mm 3 mps 743 mmHg 52%
    02:00 +31°C° 0.1 mm 3 mps 743 mmHg 53%
    03:00 +31°C° 0 mm 3 mps 743 mmHg 54%
    04:00 +31°C° 0 mm 2 mps 743 mmHg 55%
    05:00 +30°C° 0 mm 2 mps 744 mmHg 55%
    06:00 +31°C° 0 mm 2 mps 744 mmHg 53%
    07:00 +33°C° 0 mm 3 mps 744 mmHg 51%
    08:00 +33°C° 0 mm 3 mps 745 mmHg 49%
    09:00 +35°C° 0 mm 3 mps 745 mmHg 44%
    10:00 +36°C° 0 mm 2 mps 745 mmHg 40%
    11:00 +38°C° 0 mm 2 mps 744 mmHg 36%
    12:00 +38°C° 0 mm 2 mps 744 mmHg 34%
    13:00 +39°C° 0 mm 2 mps 743 mmHg 32%
    14:00 +40°C° 0 mm 2 mps 742 mmHg 31%
    15:00 +39°C° 0.1 mm 3 mps 742 mmHg 32%
    16:00 +38°C° 0.1 mm 3 mps 742 mmHg 34%
    17:00 +38°C° 0.1 mm 3 mps 742 mmHg 36%
    18:00 +37°C° 0 mm 3 mps 743 mmHg 39%
    19:00 +36°C° 0 mm 3 mps 743 mmHg 43%
    20:00 +35°C° 0 mm 3 mps 744 mmHg 46%
    21:00 +34°C° 0.1 mm 3 mps 744 mmHg 47%
    22:00 +34°C° 0.1 mm 3 mps 744 mmHg 49%
    23:00 +32°C° 0.1 mm 2 mps 744 mmHg 50%
    Show more